Index of /20260430/WXO-DD/model_gdps/15km/00/075
Name Last modified Size Description
Parent Directory -
20260430T00Z_MSC_GDPS_AbsoluteVorticity_IsbL-0200_LatLon0.15_PT075H.grib2 2026-04-30 04:17 1.5M
20260430T00Z_MSC_GDPS_AbsoluteVorticity_IsbL-0250_LatLon0.15_PT075H.grib2 2026-04-30 04:17 1.3M
20260430T00Z_MSC_GDPS_AbsoluteVorticity_IsbL-0500_LatLon0.15_PT075H.grib2 2026-04-30 04:17 1.4M
20260430T00Z_MSC_GDPS_AbsoluteVorticity_IsbL-0700_LatLon0.15_PT075H.grib2 2026-04-30 04:17 1.3M
20260430T00Z_MSC_GDPS_AbsoluteVorticity_IsbL-0850_LatLon0.15_PT075H.grib2 2026-04-30 04:17 1.6M
20260430T00Z_MSC_GDPS_AirTemp_AGL-120m_LatLon0.15_PT075H.grib2 2026-04-30 04:17 905K
20260430T00Z_MSC_GDPS_AirTemp_AGL-2m_LatLon0.15_PT075H.grib2 2026-04-30 04:17 1.0M
20260430T00Z_MSC_GDPS_AirTemp_AGL-40m_LatLon0.15_PT075H.grib2 2026-04-30 04:17 926K
20260430T00Z_MSC_GDPS_AirTemp_AGL-80m_LatLon0.15_PT075H.grib2 2026-04-30 04:17 914K
20260430T00Z_MSC_GDPS_AirTemp_IsbL-0001_LatLon0.15_PT075H.grib2 2026-04-30 04:17 718K
20260430T00Z_MSC_GDPS_AirTemp_IsbL-0005_LatLon0.15_PT075H.grib2 2026-04-30 04:17 686K
20260430T00Z_MSC_GDPS_AirTemp_IsbL-0010_LatLon0.15_PT075H.grib2 2026-04-30 04:17 695K
20260430T00Z_MSC_GDPS_AirTemp_IsbL-0020_LatLon0.15_PT075H.grib2 2026-04-30 04:17 784K
20260430T00Z_MSC_GDPS_AirTemp_IsbL-0030_LatLon0.15_PT075H.grib2 2026-04-30 04:17 751K
20260430T00Z_MSC_GDPS_AirTemp_IsbL-0050_LatLon0.15_PT075H.grib2 2026-04-30 04:17 809K
20260430T00Z_MSC_GDPS_AirTemp_IsbL-0100_LatLon0.15_PT075H.grib2 2026-04-30 04:17 963K
20260430T00Z_MSC_GDPS_AirTemp_IsbL-0150_LatLon0.15_PT075H.grib2 2026-04-30 04:17 972K
20260430T00Z_MSC_GDPS_AirTemp_IsbL-0175_LatLon0.15_PT075H.grib2 2026-04-30 04:17 959K
20260430T00Z_MSC_GDPS_AirTemp_IsbL-0200_LatLon0.15_PT075H.grib2 2026-04-30 04:17 971K
20260430T00Z_MSC_GDPS_AirTemp_IsbL-0225_LatLon0.15_PT075H.grib2 2026-04-30 04:17 1.0M
20260430T00Z_MSC_GDPS_AirTemp_IsbL-0250_LatLon0.15_PT075H.grib2 2026-04-30 04:17 1.0M
20260430T00Z_MSC_GDPS_AirTemp_IsbL-0275_LatLon0.15_PT075H.grib2 2026-04-30 04:17 1.0M
20260430T00Z_MSC_GDPS_AirTemp_IsbL-0300_LatLon0.15_PT075H.grib2 2026-04-30 04:17 1.0M
20260430T00Z_MSC_GDPS_AirTemp_IsbL-0350_LatLon0.15_PT075H.grib2 2026-04-30 04:17 921K
20260430T00Z_MSC_GDPS_AirTemp_IsbL-0400_LatLon0.15_PT075H.grib2 2026-04-30 04:17 937K
20260430T00Z_MSC_GDPS_AirTemp_IsbL-0450_LatLon0.15_PT075H.grib2 2026-04-30 04:17 959K
20260430T00Z_MSC_GDPS_AirTemp_IsbL-0500_LatLon0.15_PT075H.grib2 2026-04-30 04:17 1.0M
20260430T00Z_MSC_GDPS_AirTemp_IsbL-0550_LatLon0.15_PT075H.grib2 2026-04-30 04:17 799K
20260430T00Z_MSC_GDPS_AirTemp_IsbL-0600_LatLon0.15_PT075H.grib2 2026-04-30 04:17 890K
20260430T00Z_MSC_GDPS_AirTemp_IsbL-0650_LatLon0.15_PT075H.grib2 2026-04-30 04:17 912K
20260430T00Z_MSC_GDPS_AirTemp_IsbL-0700_LatLon0.15_PT075H.grib2 2026-04-30 04:17 945K
20260430T00Z_MSC_GDPS_AirTemp_IsbL-0750_LatLon0.15_PT075H.grib2 2026-04-30 04:17 1.0M
20260430T00Z_MSC_GDPS_AirTemp_IsbL-0800_LatLon0.15_PT075H.grib2 2026-04-30 04:17 1.1M
20260430T00Z_MSC_GDPS_AirTemp_IsbL-0850_LatLon0.15_PT075H.grib2 2026-04-30 04:17 1.1M
20260430T00Z_MSC_GDPS_AirTemp_IsbL-0875_LatLon0.15_PT075H.grib2 2026-04-30 04:17 1.1M
20260430T00Z_MSC_GDPS_AirTemp_IsbL-0900_LatLon0.15_PT075H.grib2 2026-04-30 04:17 1.1M
20260430T00Z_MSC_GDPS_AirTemp_IsbL-0925_LatLon0.15_PT075H.grib2 2026-04-30 04:17 1.1M
20260430T00Z_MSC_GDPS_AirTemp_IsbL-0950_LatLon0.15_PT075H.grib2 2026-04-30 04:17 1.1M
20260430T00Z_MSC_GDPS_AirTemp_IsbL-0970_LatLon0.15_PT075H.grib2 2026-04-30 04:17 1.1M
20260430T00Z_MSC_GDPS_AirTemp_IsbL-0985_LatLon0.15_PT075H.grib2 2026-04-30 04:17 1.1M
20260430T00Z_MSC_GDPS_AirTemp_IsbL-1000_LatLon0.15_PT075H.grib2 2026-04-30 04:17 1.1M
20260430T00Z_MSC_GDPS_AirTemp_IsbL-1015_LatLon0.15_PT075H.grib2 2026-04-30 04:17 1.1M
20260430T00Z_MSC_GDPS_Albedo_Sfc_LatLon0.15_PT075H.grib2 2026-04-30 04:17 242K
20260430T00Z_MSC_GDPS_CAPE_Sfc_LatLon0.15_PT075H.grib2 2026-04-30 04:17 4.0M
20260430T00Z_MSC_GDPS_CIN_Sfc_LatLon0.15_PT075H.grib2 2026-04-30 04:17 2.9M
20260430T00Z_MSC_GDPS_CloudWater_EAtm_LatLon0.15_PT075H.grib2 2026-04-30 04:17 529K
20260430T00Z_MSC_GDPS_ConvectivePrecip-Accum_Sfc_LatLon0.15_PT075H.grib2 2026-04-30 04:17 3.3M
20260430T00Z_MSC_GDPS_DewPointDepression_AGL-2m_LatLon0.15_PT075H.grib2 2026-04-30 04:17 764K
20260430T00Z_MSC_GDPS_DewPointDepression_IsbL-0010_LatLon0.15_PT075H.grib2 2026-04-30 04:17 67K
20260430T00Z_MSC_GDPS_DewPointDepression_IsbL-0020_LatLon0.15_PT075H.grib2 2026-04-30 04:17 68K
20260430T00Z_MSC_GDPS_DewPointDepression_IsbL-0030_LatLon0.15_PT075H.grib2 2026-04-30 04:17 84K
20260430T00Z_MSC_GDPS_DewPointDepression_IsbL-0050_LatLon0.15_PT075H.grib2 2026-04-30 04:17 375K
20260430T00Z_MSC_GDPS_DewPointDepression_IsbL-0100_LatLon0.15_PT075H.grib2 2026-04-30 04:17 408K
20260430T00Z_MSC_GDPS_DewPointDepression_IsbL-0150_LatLon0.15_PT075H.grib2 2026-04-30 04:17 466K
20260430T00Z_MSC_GDPS_DewPointDepression_IsbL-0175_LatLon0.15_PT075H.grib2 2026-04-30 04:17 577K
20260430T00Z_MSC_GDPS_DewPointDepression_IsbL-0200_LatLon0.15_PT075H.grib2 2026-04-30 04:17 678K
20260430T00Z_MSC_GDPS_DewPointDepression_IsbL-0225_LatLon0.15_PT075H.grib2 2026-04-30 04:17 770K
20260430T00Z_MSC_GDPS_DewPointDepression_IsbL-0250_LatLon0.15_PT075H.grib2 2026-04-30 04:17 850K
20260430T00Z_MSC_GDPS_DewPointDepression_IsbL-0275_LatLon0.15_PT075H.grib2 2026-04-30 04:17 870K
20260430T00Z_MSC_GDPS_DewPointDepression_IsbL-0300_LatLon0.15_PT075H.grib2 2026-04-30 04:17 910K
20260430T00Z_MSC_GDPS_DewPointDepression_IsbL-0350_LatLon0.15_PT075H.grib2 2026-04-30 04:17 942K
20260430T00Z_MSC_GDPS_DewPointDepression_IsbL-0400_LatLon0.15_PT075H.grib2 2026-04-30 04:17 1.0M
20260430T00Z_MSC_GDPS_DewPointDepression_IsbL-0450_LatLon0.15_PT075H.grib2 2026-04-30 04:17 1.0M
20260430T00Z_MSC_GDPS_DewPointDepression_IsbL-0500_LatLon0.15_PT075H.grib2 2026-04-30 04:17 1.0M
20260430T00Z_MSC_GDPS_DewPointDepression_IsbL-0550_LatLon0.15_PT075H.grib2 2026-04-30 04:17 1.0M
20260430T00Z_MSC_GDPS_DewPointDepression_IsbL-0600_LatLon0.15_PT075H.grib2 2026-04-30 04:17 1.0M
20260430T00Z_MSC_GDPS_DewPointDepression_IsbL-0650_LatLon0.15_PT075H.grib2 2026-04-30 04:17 1.1M
20260430T00Z_MSC_GDPS_DewPointDepression_IsbL-0700_LatLon0.15_PT075H.grib2 2026-04-30 04:17 1.1M
20260430T00Z_MSC_GDPS_DewPointDepression_IsbL-0750_LatLon0.15_PT075H.grib2 2026-04-30 04:17 1.1M
20260430T00Z_MSC_GDPS_DewPointDepression_IsbL-0800_LatLon0.15_PT075H.grib2 2026-04-30 04:17 1.2M
20260430T00Z_MSC_GDPS_DewPointDepression_IsbL-0850_LatLon0.15_PT075H.grib2 2026-04-30 04:17 1.2M
20260430T00Z_MSC_GDPS_DewPointDepression_IsbL-0875_LatLon0.15_PT075H.grib2 2026-04-30 04:17 1.1M
20260430T00Z_MSC_GDPS_DewPointDepression_IsbL-0900_LatLon0.15_PT075H.grib2 2026-04-30 04:17 1.1M
20260430T00Z_MSC_GDPS_DewPointDepression_IsbL-0925_LatLon0.15_PT075H.grib2 2026-04-30 04:17 1.0M
20260430T00Z_MSC_GDPS_DewPointDepression_IsbL-0950_LatLon0.15_PT075H.grib2 2026-04-30 04:17 1.0M
20260430T00Z_MSC_GDPS_DewPointDepression_IsbL-0970_LatLon0.15_PT075H.grib2 2026-04-30 04:17 1.0M
20260430T00Z_MSC_GDPS_DewPointDepression_IsbL-0985_LatLon0.15_PT075H.grib2 2026-04-30 04:17 1.0M
20260430T00Z_MSC_GDPS_DewPointDepression_IsbL-1000_LatLon0.15_PT075H.grib2 2026-04-30 04:17 972K
20260430T00Z_MSC_GDPS_DewPointDepression_IsbL-1015_LatLon0.15_PT075H.grib2 2026-04-30 04:17 913K
20260430T00Z_MSC_GDPS_DewPoint_AGL-2m_LatLon0.15_PT075H.grib2 2026-04-30 04:17 603K
20260430T00Z_MSC_GDPS_DownwardLongwaveRadiationFlux-Accum_Sfc_LatLon0.15_PT075H.grib2 2026-04-30 04:17 674K
20260430T00Z_MSC_GDPS_DownwardShortwaveRadiationFlux-Accum_NTAtm_LatLon0.15_PT075H.grib2 2026-04-30 04:17 194K
20260430T00Z_MSC_GDPS_DownwardShortwaveRadiationFlux-Accum_Sfc_LatLon0.15_PT075H.grib2 2026-04-30 04:17 1.1M
20260430T00Z_MSC_GDPS_FreezingRain-Accum1h_Sfc_LatLon0.15_PT075H.grib2 2026-04-30 04:17 25K
20260430T00Z_MSC_GDPS_FreezingRain-Accum3h_Sfc_LatLon0.15_PT075H.grib2 2026-04-30 04:17 29K
20260430T00Z_MSC_GDPS_FreezingRain-Accum_Sfc_LatLon0.15_PT075H.grib2 2026-04-30 04:17 320K
20260430T00Z_MSC_GDPS_GeopotentialHeight_IsbL-0001_LatLon0.15_PT075H.grib2 2026-04-30 04:17 421K
20260430T00Z_MSC_GDPS_GeopotentialHeight_IsbL-0005_LatLon0.15_PT075H.grib2 2026-04-30 04:17 483K
20260430T00Z_MSC_GDPS_GeopotentialHeight_IsbL-0010_LatLon0.15_PT075H.grib2 2026-04-30 04:17 476K
20260430T00Z_MSC_GDPS_GeopotentialHeight_IsbL-0020_LatLon0.15_PT075H.grib2 2026-04-30 04:17 407K
20260430T00Z_MSC_GDPS_GeopotentialHeight_IsbL-0030_LatLon0.15_PT075H.grib2 2026-04-30 04:17 564K
20260430T00Z_MSC_GDPS_GeopotentialHeight_IsbL-0050_LatLon0.15_PT075H.grib2 2026-04-30 04:17 563K
20260430T00Z_MSC_GDPS_GeopotentialHeight_IsbL-0100_LatLon0.15_PT075H.grib2 2026-04-30 04:17 603K
20260430T00Z_MSC_GDPS_GeopotentialHeight_IsbL-0150_LatLon0.15_PT075H.grib2 2026-04-30 04:17 624K
20260430T00Z_MSC_GDPS_GeopotentialHeight_IsbL-0175_LatLon0.15_PT075H.grib2 2026-04-30 04:17 626K
20260430T00Z_MSC_GDPS_GeopotentialHeight_IsbL-0200_LatLon0.15_PT075H.grib2 2026-04-30 04:17 631K
20260430T00Z_MSC_GDPS_GeopotentialHeight_IsbL-0225_LatLon0.15_PT075H.grib2 2026-04-30 04:17 628K
20260430T00Z_MSC_GDPS_GeopotentialHeight_IsbL-0250_LatLon0.15_PT075H.grib2 2026-04-30 04:17 636K
20260430T00Z_MSC_GDPS_GeopotentialHeight_IsbL-0275_LatLon0.15_PT075H.grib2 2026-04-30 04:17 634K
20260430T00Z_MSC_GDPS_GeopotentialHeight_IsbL-0300_LatLon0.15_PT075H.grib2 2026-04-30 04:17 632K
20260430T00Z_MSC_GDPS_GeopotentialHeight_IsbL-0350_LatLon0.15_PT075H.grib2 2026-04-30 04:17 623K
20260430T00Z_MSC_GDPS_GeopotentialHeight_IsbL-0400_LatLon0.15_PT075H.grib2 2026-04-30 04:17 615K
20260430T00Z_MSC_GDPS_GeopotentialHeight_IsbL-0450_LatLon0.15_PT075H.grib2 2026-04-30 04:17 607K
20260430T00Z_MSC_GDPS_GeopotentialHeight_IsbL-0500_LatLon0.15_PT075H.grib2 2026-04-30 04:17 599K
20260430T00Z_MSC_GDPS_GeopotentialHeight_IsbL-0550_LatLon0.15_PT075H.grib2 2026-04-30 04:17 525K
20260430T00Z_MSC_GDPS_GeopotentialHeight_IsbL-0600_LatLon0.15_PT075H.grib2 2026-04-30 04:17 520K
20260430T00Z_MSC_GDPS_GeopotentialHeight_IsbL-0650_LatLon0.15_PT075H.grib2 2026-04-30 04:17 685K
20260430T00Z_MSC_GDPS_GeopotentialHeight_IsbL-0700_LatLon0.15_PT075H.grib2 2026-04-30 04:17 679K
20260430T00Z_MSC_GDPS_GeopotentialHeight_IsbL-0750_LatLon0.15_PT075H.grib2 2026-04-30 04:17 684K
20260430T00Z_MSC_GDPS_GeopotentialHeight_IsbL-0800_LatLon0.15_PT075H.grib2 2026-04-30 04:17 699K
20260430T00Z_MSC_GDPS_GeopotentialHeight_IsbL-0850_LatLon0.15_PT075H.grib2 2026-04-30 04:17 706K
20260430T00Z_MSC_GDPS_GeopotentialHeight_IsbL-0875_LatLon0.15_PT075H.grib2 2026-04-30 04:17 714K
20260430T00Z_MSC_GDPS_GeopotentialHeight_IsbL-0900_LatLon0.15_PT075H.grib2 2026-04-30 04:17 726K
20260430T00Z_MSC_GDPS_GeopotentialHeight_IsbL-0925_LatLon0.15_PT075H.grib2 2026-04-30 04:17 731K
20260430T00Z_MSC_GDPS_GeopotentialHeight_IsbL-0950_LatLon0.15_PT075H.grib2 2026-04-30 04:17 741K
20260430T00Z_MSC_GDPS_GeopotentialHeight_IsbL-0970_LatLon0.15_PT075H.grib2 2026-04-30 04:17 753K
20260430T00Z_MSC_GDPS_GeopotentialHeight_IsbL-0985_LatLon0.15_PT075H.grib2 2026-04-30 04:17 769K
20260430T00Z_MSC_GDPS_GeopotentialHeight_IsbL-1000_LatLon0.15_PT075H.grib2 2026-04-30 04:17 788K
20260430T00Z_MSC_GDPS_GeopotentialHeight_IsbL-1015_LatLon0.15_PT075H.grib2 2026-04-30 04:17 810K
20260430T00Z_MSC_GDPS_Humidex_Sfc_LatLon0.15_PT075H.grib2 2026-04-30 04:17 5.3M
20260430T00Z_MSC_GDPS_IcePellets-Accum1h_Sfc_LatLon0.15_PT075H.grib2 2026-04-30 04:17 2.6K
20260430T00Z_MSC_GDPS_IcePellets-Accum3h_Sfc_LatLon0.15_PT075H.grib2 2026-04-30 04:17 2.7K
20260430T00Z_MSC_GDPS_IcePellets-Accum_Sfc_LatLon0.15_PT075H.grib2 2026-04-30 04:17 72K
20260430T00Z_MSC_GDPS_KIndex_Sfc_LatLon0.15_PT075H.grib2 2026-04-30 04:17 6.5M
20260430T00Z_MSC_GDPS_LatentHeatNetFlux_Sfc_LatLon0.15_PT075H.grib2 2026-04-30 04:17 680K
20260430T00Z_MSC_GDPS_LiftedIndex-MU-VT_IsbL-0500_LatLon0.15_PT075H.grib2 2026-04-30 04:17 5.4M
20260430T00Z_MSC_GDPS_NetLongwaveRadiationFlux-Accum_Sfc_LatLon0.15_PT075H.grib2 2026-04-30 04:17 1.0M
20260430T00Z_MSC_GDPS_NetShortwaveRadiationFlux-Accum_Sfc_LatLon0.15_PT075H.grib2 2026-04-30 04:17 1.1M
20260430T00Z_MSC_GDPS_O3MixingRatio_Sfc_LatLon0.15_PT075H.grib2 2026-04-30 04:50 1.9M
20260430T00Z_MSC_GDPS_O3_EAtm_LatLon0.15_PT075H.grib2 2026-04-30 04:50 2.4M
20260430T00Z_MSC_GDPS_PlanetaryBoundaryLayerHeight_Sfc_LatLon0.15_PT075H.grib2 2026-04-30 04:17 2.4M
20260430T00Z_MSC_GDPS_Precip-Accum1h_Sfc_LatLon0.15_PT075H.grib2 2026-04-30 04:17 3.2M
20260430T00Z_MSC_GDPS_Precip-Accum3h_Sfc_LatLon0.15_PT075H.grib2 2026-04-30 04:17 3.4M
20260430T00Z_MSC_GDPS_Precip-Accum_Sfc_LatLon0.15_PT075H.grib2 2026-04-30 04:17 5.2M
20260430T00Z_MSC_GDPS_PrecipRate_Sfc_LatLon0.15_PT075H.grib2 2026-04-30 04:17 3.0M
20260430T00Z_MSC_GDPS_PrecipType-Instant_Sfc_LatLon0.15_PT075H.grib2 2026-04-30 04:17 1.5M
20260430T00Z_MSC_GDPS_Pressure_MSL_LatLon0.15_PT075H.grib2 2026-04-30 04:17 721K
20260430T00Z_MSC_GDPS_Pressure_PVU-1.5_LatLon0.15_PT075H.grib2 2026-04-30 04:17 5.8M
20260430T00Z_MSC_GDPS_Pressure_PVU-1_LatLon0.15_PT075H.grib2 2026-04-30 04:17 6.0M
20260430T00Z_MSC_GDPS_Pressure_PVU-2_LatLon0.15_PT075H.grib2 2026-04-30 04:17 5.6M
20260430T00Z_MSC_GDPS_Pressure_Sfc_LatLon0.15_PT075H.grib2 2026-04-30 04:17 1.1M
20260430T00Z_MSC_GDPS_RadiativeTemp_Sfc_LatLon0.15_PT075H.grib2 2026-04-30 04:17 661K
20260430T00Z_MSC_GDPS_Rain-Accum1h_Sfc_LatLon0.15_PT075H.grib2 2026-04-30 04:17 1.6M
20260430T00Z_MSC_GDPS_Rain-Accum3h_Sfc_LatLon0.15_PT075H.grib2 2026-04-30 04:17 1.6M
20260430T00Z_MSC_GDPS_Rain-Accum_Sfc_LatLon0.15_PT075H.grib2 2026-04-30 04:17 3.9M
20260430T00Z_MSC_GDPS_RelativeHumidity_AGL-2m_LatLon0.15_PT075H.grib2 2026-04-30 04:17 1.1M
20260430T00Z_MSC_GDPS_RelativeHumidity_IsbL-0010_LatLon0.15_PT075H.grib2 2026-04-30 04:17 132K
20260430T00Z_MSC_GDPS_RelativeHumidity_IsbL-0020_LatLon0.15_PT075H.grib2 2026-04-30 04:17 167K
20260430T00Z_MSC_GDPS_RelativeHumidity_IsbL-0030_LatLon0.15_PT075H.grib2 2026-04-30 04:17 268K
20260430T00Z_MSC_GDPS_RelativeHumidity_IsbL-0050_LatLon0.15_PT075H.grib2 2026-04-30 04:17 421K
20260430T00Z_MSC_GDPS_RelativeHumidity_IsbL-0100_LatLon0.15_PT075H.grib2 2026-04-30 04:17 510K
20260430T00Z_MSC_GDPS_RelativeHumidity_IsbL-0150_LatLon0.15_PT075H.grib2 2026-04-30 04:17 660K
20260430T00Z_MSC_GDPS_RelativeHumidity_IsbL-0175_LatLon0.15_PT075H.grib2 2026-04-30 04:17 780K
20260430T00Z_MSC_GDPS_RelativeHumidity_IsbL-0200_LatLon0.15_PT075H.grib2 2026-04-30 04:17 697K
20260430T00Z_MSC_GDPS_RelativeHumidity_IsbL-0225_LatLon0.15_PT075H.grib2 2026-04-30 04:17 783K
20260430T00Z_MSC_GDPS_RelativeHumidity_IsbL-0250_LatLon0.15_PT075H.grib2 2026-04-30 04:17 851K
20260430T00Z_MSC_GDPS_RelativeHumidity_IsbL-0275_LatLon0.15_PT075H.grib2 2026-04-30 04:17 875K
20260430T00Z_MSC_GDPS_RelativeHumidity_IsbL-0300_LatLon0.15_PT075H.grib2 2026-04-30 04:17 918K
20260430T00Z_MSC_GDPS_RelativeHumidity_IsbL-0350_LatLon0.15_PT075H.grib2 2026-04-30 04:17 941K
20260430T00Z_MSC_GDPS_RelativeHumidity_IsbL-0400_LatLon0.15_PT075H.grib2 2026-04-30 04:17 969K
20260430T00Z_MSC_GDPS_RelativeHumidity_IsbL-0450_LatLon0.15_PT075H.grib2 2026-04-30 04:17 1.0M
20260430T00Z_MSC_GDPS_RelativeHumidity_IsbL-0500_LatLon0.15_PT075H.grib2 2026-04-30 04:17 1.0M
20260430T00Z_MSC_GDPS_RelativeHumidity_IsbL-0550_LatLon0.15_PT075H.grib2 2026-04-30 04:17 1.0M
20260430T00Z_MSC_GDPS_RelativeHumidity_IsbL-0600_LatLon0.15_PT075H.grib2 2026-04-30 04:17 1.1M
20260430T00Z_MSC_GDPS_RelativeHumidity_IsbL-0650_LatLon0.15_PT075H.grib2 2026-04-30 04:17 1.1M
20260430T00Z_MSC_GDPS_RelativeHumidity_IsbL-0700_LatLon0.15_PT075H.grib2 2026-04-30 04:17 1.1M
20260430T00Z_MSC_GDPS_RelativeHumidity_IsbL-0750_LatLon0.15_PT075H.grib2 2026-04-30 04:17 1.2M
20260430T00Z_MSC_GDPS_RelativeHumidity_IsbL-0800_LatLon0.15_PT075H.grib2 2026-04-30 04:17 1.2M
20260430T00Z_MSC_GDPS_RelativeHumidity_IsbL-0850_LatLon0.15_PT075H.grib2 2026-04-30 04:17 1.3M
20260430T00Z_MSC_GDPS_RelativeHumidity_IsbL-0875_LatLon0.15_PT075H.grib2 2026-04-30 04:17 1.3M
20260430T00Z_MSC_GDPS_RelativeHumidity_IsbL-0900_LatLon0.15_PT075H.grib2 2026-04-30 04:17 1.2M
20260430T00Z_MSC_GDPS_RelativeHumidity_IsbL-0925_LatLon0.15_PT075H.grib2 2026-04-30 04:17 1.2M
20260430T00Z_MSC_GDPS_RelativeHumidity_IsbL-0950_LatLon0.15_PT075H.grib2 2026-04-30 04:17 1.2M
20260430T00Z_MSC_GDPS_RelativeHumidity_IsbL-0970_LatLon0.15_PT075H.grib2 2026-04-30 04:17 1.2M
20260430T00Z_MSC_GDPS_RelativeHumidity_IsbL-0985_LatLon0.15_PT075H.grib2 2026-04-30 04:17 1.1M
20260430T00Z_MSC_GDPS_RelativeHumidity_IsbL-1000_LatLon0.15_PT075H.grib2 2026-04-30 04:17 1.2M
20260430T00Z_MSC_GDPS_RelativeHumidity_IsbL-1015_LatLon0.15_PT075H.grib2 2026-04-30 04:17 1.0M
20260430T00Z_MSC_GDPS_RelativeVorticity_IsbL-0200_LatLon0.15_PT075H.grib2 2026-04-30 04:17 1.5M
20260430T00Z_MSC_GDPS_RelativeVorticity_IsbL-0250_LatLon0.15_PT075H.grib2 2026-04-30 04:17 1.3M
20260430T00Z_MSC_GDPS_RelativeVorticity_IsbL-0500_LatLon0.15_PT075H.grib2 2026-04-30 04:17 1.4M
20260430T00Z_MSC_GDPS_RelativeVorticity_IsbL-0700_LatLon0.15_PT075H.grib2 2026-04-30 04:17 1.3M
20260430T00Z_MSC_GDPS_RelativeVorticity_IsbL-0850_LatLon0.15_PT075H.grib2 2026-04-30 04:17 1.6M
20260430T00Z_MSC_GDPS_Runoff-Accum_Sfc_LatLon0.15_PT075H.grib2 2026-04-30 04:17 155K
20260430T00Z_MSC_GDPS_SensibleHeatNetFlux_Sfc_LatLon0.15_PT075H.grib2 2026-04-30 04:17 625K
20260430T00Z_MSC_GDPS_ShowalterIndex_IsbL-0500_LatLon0.15_PT075H.grib2 2026-04-30 04:17 6.2M
20260430T00Z_MSC_GDPS_Snow-Accum1h_Sfc_LatLon0.15_PT075H.grib2 2026-04-30 04:17 1.3M
20260430T00Z_MSC_GDPS_Snow-Accum3h_Sfc_LatLon0.15_PT075H.grib2 2026-04-30 04:17 1.2M
20260430T00Z_MSC_GDPS_Snow-Accum_Sfc_LatLon0.15_PT075H.grib2 2026-04-30 04:17 2.1M
20260430T00Z_MSC_GDPS_SnowDensity_Sfc_LatLon0.15_PT075H.grib2 2026-04-30 04:17 267K
20260430T00Z_MSC_GDPS_SnowDepth_Sfc_LatLon0.15_PT075H.grib2 2026-04-30 04:17 1.7M
20260430T00Z_MSC_GDPS_SoilTemp_DBS-0to10cm_LatLon0.15_PT075H.grib2 2026-04-30 04:17 506K
20260430T00Z_MSC_GDPS_SoilTemp_Sfc_LatLon0.15_PT075H.grib2 2026-04-30 04:17 569K
20260430T00Z_MSC_GDPS_SoilVolumetricIceContent_Sfc_LatLon0.15_PT075H.grib2 2026-04-30 04:17 200K
20260430T00Z_MSC_GDPS_SoilVolumetricWaterContent_DBS-0to10cm_LatLon0.15_PT075H.grib2 2026-04-30 04:17 587K
20260430T00Z_MSC_GDPS_SoilVolumetricWaterContent_DBS-0to1cm_LatLon0.15_PT075H.grib2 2026-04-30 04:17 654K
20260430T00Z_MSC_GDPS_SpecificHumidity_AGL-120m_LatLon0.15_PT075H.grib2 2026-04-30 04:17 1.1M
20260430T00Z_MSC_GDPS_SpecificHumidity_AGL-2m_LatLon0.15_PT075H.grib2 2026-04-30 04:17 1.2M
20260430T00Z_MSC_GDPS_SpecificHumidity_AGL-40m_LatLon0.15_PT075H.grib2 2026-04-30 04:17 1.1M
20260430T00Z_MSC_GDPS_SpecificHumidity_AGL-80m_LatLon0.15_PT075H.grib2 2026-04-30 04:17 1.1M
20260430T00Z_MSC_GDPS_SpecificHumidity_IsbL-0001_LatLon0.15_PT075H.grib2 2026-04-30 04:17 1.3M
20260430T00Z_MSC_GDPS_SpecificHumidity_IsbL-0005_LatLon0.15_PT075H.grib2 2026-04-30 04:17 1.2M
20260430T00Z_MSC_GDPS_SpecificHumidity_IsbL-0010_LatLon0.15_PT075H.grib2 2026-04-30 04:17 1.3M
20260430T00Z_MSC_GDPS_SpecificHumidity_IsbL-0020_LatLon0.15_PT075H.grib2 2026-04-30 04:17 1.4M
20260430T00Z_MSC_GDPS_SpecificHumidity_IsbL-0030_LatLon0.15_PT075H.grib2 2026-04-30 04:17 1.3M
20260430T00Z_MSC_GDPS_SpecificHumidity_IsbL-0050_LatLon0.15_PT075H.grib2 2026-04-30 04:17 1.3M
20260430T00Z_MSC_GDPS_SpecificHumidity_IsbL-0100_LatLon0.15_PT075H.grib2 2026-04-30 04:17 1.3M
20260430T00Z_MSC_GDPS_SpecificHumidity_IsbL-0150_LatLon0.15_PT075H.grib2 2026-04-30 04:17 1.3M
20260430T00Z_MSC_GDPS_SpecificHumidity_IsbL-0175_LatLon0.15_PT075H.grib2 2026-04-30 04:17 1.2M
20260430T00Z_MSC_GDPS_SpecificHumidity_IsbL-0200_LatLon0.15_PT075H.grib2 2026-04-30 04:17 1.3M
20260430T00Z_MSC_GDPS_SpecificHumidity_IsbL-0225_LatLon0.15_PT075H.grib2 2026-04-30 04:17 1.3M
20260430T00Z_MSC_GDPS_SpecificHumidity_IsbL-0250_LatLon0.15_PT075H.grib2 2026-04-30 04:17 1.4M
20260430T00Z_MSC_GDPS_SpecificHumidity_IsbL-0275_LatLon0.15_PT075H.grib2 2026-04-30 04:17 1.3M
20260430T00Z_MSC_GDPS_SpecificHumidity_IsbL-0300_LatLon0.15_PT075H.grib2 2026-04-30 04:17 1.2M
20260430T00Z_MSC_GDPS_SpecificHumidity_IsbL-0350_LatLon0.15_PT075H.grib2 2026-04-30 04:17 1.5M
20260430T00Z_MSC_GDPS_SpecificHumidity_IsbL-0400_LatLon0.15_PT075H.grib2 2026-04-30 04:17 1.5M
20260430T00Z_MSC_GDPS_SpecificHumidity_IsbL-0450_LatLon0.15_PT075H.grib2 2026-04-30 04:17 1.6M
20260430T00Z_MSC_GDPS_SpecificHumidity_IsbL-0500_LatLon0.15_PT075H.grib2 2026-04-30 04:17 1.4M
20260430T00Z_MSC_GDPS_SpecificHumidity_IsbL-0550_LatLon0.15_PT075H.grib2 2026-04-30 04:17 1.6M
20260430T00Z_MSC_GDPS_SpecificHumidity_IsbL-0600_LatLon0.15_PT075H.grib2 2026-04-30 04:17 1.7M
20260430T00Z_MSC_GDPS_SpecificHumidity_IsbL-0650_LatLon0.15_PT075H.grib2 2026-04-30 04:17 1.5M
20260430T00Z_MSC_GDPS_SpecificHumidity_IsbL-0700_LatLon0.15_PT075H.grib2 2026-04-30 04:17 1.6M
20260430T00Z_MSC_GDPS_SpecificHumidity_IsbL-0750_LatLon0.15_PT075H.grib2 2026-04-30 04:17 1.7M
20260430T00Z_MSC_GDPS_SpecificHumidity_IsbL-0800_LatLon0.15_PT075H.grib2 2026-04-30 04:17 1.8M
20260430T00Z_MSC_GDPS_SpecificHumidity_IsbL-0850_LatLon0.15_PT075H.grib2 2026-04-30 04:17 1.9M
20260430T00Z_MSC_GDPS_SpecificHumidity_IsbL-0875_LatLon0.15_PT075H.grib2 2026-04-30 04:17 1.9M
20260430T00Z_MSC_GDPS_SpecificHumidity_IsbL-0900_LatLon0.15_PT075H.grib2 2026-04-30 04:17 1.9M
20260430T00Z_MSC_GDPS_SpecificHumidity_IsbL-0925_LatLon0.15_PT075H.grib2 2026-04-30 04:17 1.6M
20260430T00Z_MSC_GDPS_SpecificHumidity_IsbL-0950_LatLon0.15_PT075H.grib2 2026-04-30 04:17 1.6M
20260430T00Z_MSC_GDPS_SpecificHumidity_IsbL-0970_LatLon0.15_PT075H.grib2 2026-04-30 04:17 1.5M
20260430T00Z_MSC_GDPS_SpecificHumidity_IsbL-0985_LatLon0.15_PT075H.grib2 2026-04-30 04:17 1.5M
20260430T00Z_MSC_GDPS_SpecificHumidity_IsbL-1000_LatLon0.15_PT075H.grib2 2026-04-30 04:17 1.5M
20260430T00Z_MSC_GDPS_SpecificHumidity_IsbL-1015_LatLon0.15_PT075H.grib2 2026-04-30 04:17 1.4M
20260430T00Z_MSC_GDPS_SpecificHumidity_Sfc_LatLon0.15_PT075H.grib2 2026-04-30 04:17 633K
20260430T00Z_MSC_GDPS_Thickness_IsbL-0850to0700_LatLon0.15_PT075H.grib2 2026-04-30 04:17 464K
20260430T00Z_MSC_GDPS_Thickness_IsbL-1000to0500_LatLon0.15_PT075H.grib2 2026-04-30 04:17 372K
20260430T00Z_MSC_GDPS_Thickness_IsbL-1000to0850_LatLon0.15_PT075H.grib2 2026-04-30 04:17 489K
20260430T00Z_MSC_GDPS_TotalCloudCover_Sfc_LatLon0.15_PT075H.grib2 2026-04-30 04:17 821K
20260430T00Z_MSC_GDPS_TotalTotalsIndex_Sfc_LatLon0.15_PT075H.grib2 2026-04-30 04:17 6.2M
20260430T00Z_MSC_GDPS_UVIndex-ClearSky_Sfc_LatLon0.15_PT075H.grib2 2026-04-30 04:50 1.0M
20260430T00Z_MSC_GDPS_UVIndex_Sfc_LatLon0.15_PT075H.grib2 2026-04-30 04:50 1.5M
20260430T00Z_MSC_GDPS_UpwardLongwaveRadiationFlux_NTAtm_LatLon0.15_PT075H.grib2 2026-04-30 04:17 842K
20260430T00Z_MSC_GDPS_VerticalVelocity_IsbL-0200_LatLon0.15_PT075H.grib2 2026-04-30 04:17 1.2M
20260430T00Z_MSC_GDPS_VerticalVelocity_IsbL-0250_LatLon0.15_PT075H.grib2 2026-04-30 04:17 1.0M
20260430T00Z_MSC_GDPS_VerticalVelocity_IsbL-0500_LatLon0.15_PT075H.grib2 2026-04-30 04:17 1.0M
20260430T00Z_MSC_GDPS_VerticalVelocity_IsbL-0600_LatLon0.15_PT075H.grib2 2026-04-30 04:17 1.1M
20260430T00Z_MSC_GDPS_VerticalVelocity_IsbL-0700_LatLon0.15_PT075H.grib2 2026-04-30 04:17 1.4M
20260430T00Z_MSC_GDPS_VerticalVelocity_IsbL-0850_LatLon0.15_PT075H.grib2 2026-04-30 04:17 1.6M
20260430T00Z_MSC_GDPS_WindChill_Sfc_LatLon0.15_PT075H.grib2 2026-04-30 04:17 5.3M
20260430T00Z_MSC_GDPS_WindDir_AGL-10m_LatLon0.15_PT075H.grib2 2026-04-30 04:17 1.3M
20260430T00Z_MSC_GDPS_WindDir_AGL-120m_LatLon0.15_PT075H.grib2 2026-04-30 04:17 1.3M
20260430T00Z_MSC_GDPS_WindDir_AGL-40m_LatLon0.15_PT075H.grib2 2026-04-30 04:17 1.4M
20260430T00Z_MSC_GDPS_WindDir_AGL-80m_LatLon0.15_PT075H.grib2 2026-04-30 04:17 1.4M
20260430T00Z_MSC_GDPS_WindDir_IsbL-0001_LatLon0.15_PT075H.grib2 2026-04-30 04:17 698K
20260430T00Z_MSC_GDPS_WindDir_IsbL-0005_LatLon0.15_PT075H.grib2 2026-04-30 04:17 801K
20260430T00Z_MSC_GDPS_WindDir_IsbL-0010_LatLon0.15_PT075H.grib2 2026-04-30 04:17 834K
20260430T00Z_MSC_GDPS_WindDir_IsbL-0020_LatLon0.15_PT075H.grib2 2026-04-30 04:17 947K
20260430T00Z_MSC_GDPS_WindDir_IsbL-0030_LatLon0.15_PT075H.grib2 2026-04-30 04:17 939K
20260430T00Z_MSC_GDPS_WindDir_IsbL-0050_LatLon0.15_PT075H.grib2 2026-04-30 04:17 951K
20260430T00Z_MSC_GDPS_WindDir_IsbL-0100_LatLon0.15_PT075H.grib2 2026-04-30 04:17 1.0M
20260430T00Z_MSC_GDPS_WindDir_IsbL-0150_LatLon0.15_PT075H.grib2 2026-04-30 04:17 1.0M
20260430T00Z_MSC_GDPS_WindDir_IsbL-0175_LatLon0.15_PT075H.grib2 2026-04-30 04:17 1.0M
20260430T00Z_MSC_GDPS_WindDir_IsbL-0200_LatLon0.15_PT075H.grib2 2026-04-30 04:17 1.1M
20260430T00Z_MSC_GDPS_WindDir_IsbL-0225_LatLon0.15_PT075H.grib2 2026-04-30 04:17 1.1M
20260430T00Z_MSC_GDPS_WindDir_IsbL-0250_LatLon0.15_PT075H.grib2 2026-04-30 04:17 1.1M
20260430T00Z_MSC_GDPS_WindDir_IsbL-0275_LatLon0.15_PT075H.grib2 2026-04-30 04:17 1.2M
20260430T00Z_MSC_GDPS_WindDir_IsbL-0300_LatLon0.15_PT075H.grib2 2026-04-30 04:17 1.2M
20260430T00Z_MSC_GDPS_WindDir_IsbL-0350_LatLon0.15_PT075H.grib2 2026-04-30 04:17 1.2M
20260430T00Z_MSC_GDPS_WindDir_IsbL-0400_LatLon0.15_PT075H.grib2 2026-04-30 04:17 1.3M
20260430T00Z_MSC_GDPS_WindDir_IsbL-0450_LatLon0.15_PT075H.grib2 2026-04-30 04:17 1.3M
20260430T00Z_MSC_GDPS_WindDir_IsbL-0500_LatLon0.15_PT075H.grib2 2026-04-30 04:17 1.3M
20260430T00Z_MSC_GDPS_WindDir_IsbL-0550_LatLon0.15_PT075H.grib2 2026-04-30 04:17 1.4M
20260430T00Z_MSC_GDPS_WindDir_IsbL-0600_LatLon0.15_PT075H.grib2 2026-04-30 04:17 1.4M
20260430T00Z_MSC_GDPS_WindDir_IsbL-0650_LatLon0.15_PT075H.grib2 2026-04-30 04:17 1.5M
20260430T00Z_MSC_GDPS_WindDir_IsbL-0700_LatLon0.15_PT075H.grib2 2026-04-30 04:17 1.6M
20260430T00Z_MSC_GDPS_WindDir_IsbL-0750_LatLon0.15_PT075H.grib2 2026-04-30 04:17 1.7M
20260430T00Z_MSC_GDPS_WindDir_IsbL-0800_LatLon0.15_PT075H.grib2 2026-04-30 04:17 1.8M
20260430T00Z_MSC_GDPS_WindDir_IsbL-0850_LatLon0.15_PT075H.grib2 2026-04-30 04:17 1.9M
20260430T00Z_MSC_GDPS_WindDir_IsbL-0875_LatLon0.15_PT075H.grib2 2026-04-30 04:17 1.9M
20260430T00Z_MSC_GDPS_WindDir_IsbL-0900_LatLon0.15_PT075H.grib2 2026-04-30 04:17 2.0M
20260430T00Z_MSC_GDPS_WindDir_IsbL-0925_LatLon0.15_PT075H.grib2 2026-04-30 04:17 2.0M
20260430T00Z_MSC_GDPS_WindDir_IsbL-0950_LatLon0.15_PT075H.grib2 2026-04-30 04:17 2.0M
20260430T00Z_MSC_GDPS_WindDir_IsbL-0970_LatLon0.15_PT075H.grib2 2026-04-30 04:17 2.0M
20260430T00Z_MSC_GDPS_WindDir_IsbL-0985_LatLon0.15_PT075H.grib2 2026-04-30 04:17 2.0M
20260430T00Z_MSC_GDPS_WindDir_IsbL-1000_LatLon0.15_PT075H.grib2 2026-04-30 04:17 2.0M
20260430T00Z_MSC_GDPS_WindDir_IsbL-1015_LatLon0.15_PT075H.grib2 2026-04-30 04:17 2.0M
20260430T00Z_MSC_GDPS_WindGust-Max_AGL-10m_LatLon0.15_PT075H.grib2 2026-04-30 04:17 2.2M
20260430T00Z_MSC_GDPS_WindGust-Min_AGL-10m_LatLon0.15_PT075H.grib2 2026-04-30 04:17 2.1M
20260430T00Z_MSC_GDPS_WindGust_AGL-10m_LatLon0.15_PT075H.grib2 2026-04-30 04:17 2.1M
20260430T00Z_MSC_GDPS_WindSpeed_AGL-10m_LatLon0.15_PT075H.grib2 2026-04-30 04:17 1.1M
20260430T00Z_MSC_GDPS_WindSpeed_AGL-120m_LatLon0.15_PT075H.grib2 2026-04-30 04:17 1.2M
20260430T00Z_MSC_GDPS_WindSpeed_AGL-40m_LatLon0.15_PT075H.grib2 2026-04-30 04:17 1.2M
20260430T00Z_MSC_GDPS_WindSpeed_AGL-80m_LatLon0.15_PT075H.grib2 2026-04-30 04:17 1.2M
20260430T00Z_MSC_GDPS_WindSpeed_IsbL-0001_LatLon0.15_PT075H.grib2 2026-04-30 04:17 639K
20260430T00Z_MSC_GDPS_WindSpeed_IsbL-0005_LatLon0.15_PT075H.grib2 2026-04-30 04:17 690K
20260430T00Z_MSC_GDPS_WindSpeed_IsbL-0010_LatLon0.15_PT075H.grib2 2026-04-30 04:17 626K
20260430T00Z_MSC_GDPS_WindSpeed_IsbL-0020_LatLon0.15_PT075H.grib2 2026-04-30 04:17 665K
20260430T00Z_MSC_GDPS_WindSpeed_IsbL-0030_LatLon0.15_PT075H.grib2 2026-04-30 04:17 860K
20260430T00Z_MSC_GDPS_WindSpeed_IsbL-0050_LatLon0.15_PT075H.grib2 2026-04-30 04:17 908K
20260430T00Z_MSC_GDPS_WindSpeed_IsbL-0100_LatLon0.15_PT075H.grib2 2026-04-30 04:17 870K
20260430T00Z_MSC_GDPS_WindSpeed_IsbL-0150_LatLon0.15_PT075H.grib2 2026-04-30 04:17 946K
20260430T00Z_MSC_GDPS_WindSpeed_IsbL-0175_LatLon0.15_PT075H.grib2 2026-04-30 04:17 1.0M
20260430T00Z_MSC_GDPS_WindSpeed_IsbL-0200_LatLon0.15_PT075H.grib2 2026-04-30 04:17 1.1M
20260430T00Z_MSC_GDPS_WindSpeed_IsbL-0225_LatLon0.15_PT075H.grib2 2026-04-30 04:17 1.1M
20260430T00Z_MSC_GDPS_WindSpeed_IsbL-0250_LatLon0.15_PT075H.grib2 2026-04-30 04:17 1.1M
20260430T00Z_MSC_GDPS_WindSpeed_IsbL-0275_LatLon0.15_PT075H.grib2 2026-04-30 04:17 1.1M
20260430T00Z_MSC_GDPS_WindSpeed_IsbL-0300_LatLon0.15_PT075H.grib2 2026-04-30 04:17 1.1M
20260430T00Z_MSC_GDPS_WindSpeed_IsbL-0350_LatLon0.15_PT075H.grib2 2026-04-30 04:17 1.1M
20260430T00Z_MSC_GDPS_WindSpeed_IsbL-0400_LatLon0.15_PT075H.grib2 2026-04-30 04:17 1.1M
20260430T00Z_MSC_GDPS_WindSpeed_IsbL-0450_LatLon0.15_PT075H.grib2 2026-04-30 04:17 1.1M
20260430T00Z_MSC_GDPS_WindSpeed_IsbL-0500_LatLon0.15_PT075H.grib2 2026-04-30 04:17 1.1M
20260430T00Z_MSC_GDPS_WindSpeed_IsbL-0550_LatLon0.15_PT075H.grib2 2026-04-30 04:17 1.1M
20260430T00Z_MSC_GDPS_WindSpeed_IsbL-0600_LatLon0.15_PT075H.grib2 2026-04-30 04:17 1.1M
20260430T00Z_MSC_GDPS_WindSpeed_IsbL-0650_LatLon0.15_PT075H.grib2 2026-04-30 04:17 1.4M
20260430T00Z_MSC_GDPS_WindSpeed_IsbL-0700_LatLon0.15_PT075H.grib2 2026-04-30 04:17 1.5M
20260430T00Z_MSC_GDPS_WindSpeed_IsbL-0750_LatLon0.15_PT075H.grib2 2026-04-30 04:17 1.5M
20260430T00Z_MSC_GDPS_WindSpeed_IsbL-0800_LatLon0.15_PT075H.grib2 2026-04-30 04:17 1.6M
20260430T00Z_MSC_GDPS_WindSpeed_IsbL-0850_LatLon0.15_PT075H.grib2 2026-04-30 04:17 1.7M
20260430T00Z_MSC_GDPS_WindSpeed_IsbL-0875_LatLon0.15_PT075H.grib2 2026-04-30 04:17 1.8M
20260430T00Z_MSC_GDPS_WindSpeed_IsbL-0900_LatLon0.15_PT075H.grib2 2026-04-30 04:17 1.8M
20260430T00Z_MSC_GDPS_WindSpeed_IsbL-0925_LatLon0.15_PT075H.grib2 2026-04-30 04:17 1.8M
20260430T00Z_MSC_GDPS_WindSpeed_IsbL-0950_LatLon0.15_PT075H.grib2 2026-04-30 04:17 1.8M
20260430T00Z_MSC_GDPS_WindSpeed_IsbL-0970_LatLon0.15_PT075H.grib2 2026-04-30 04:17 1.9M
20260430T00Z_MSC_GDPS_WindSpeed_IsbL-0985_LatLon0.15_PT075H.grib2 2026-04-30 04:17 1.9M
20260430T00Z_MSC_GDPS_WindSpeed_IsbL-1000_LatLon0.15_PT075H.grib2 2026-04-30 04:17 1.9M
20260430T00Z_MSC_GDPS_WindSpeed_IsbL-1015_LatLon0.15_PT075H.grib2 2026-04-30 04:17 1.8M
20260430T00Z_MSC_GDPS_WindU_AGL-10m_LatLon0.15_PT075H.grib2 2026-04-30 04:17 1.3M
20260430T00Z_MSC_GDPS_WindU_AGL-120m_LatLon0.15_PT075H.grib2 2026-04-30 04:17 1.0M
20260430T00Z_MSC_GDPS_WindU_AGL-40m_LatLon0.15_PT075H.grib2 2026-04-30 04:17 967K
20260430T00Z_MSC_GDPS_WindU_AGL-80m_LatLon0.15_PT075H.grib2 2026-04-30 04:17 1.0M
20260430T00Z_MSC_GDPS_WindU_IsbL-0001_LatLon0.15_PT075H.grib2 2026-04-30 04:17 500K
20260430T00Z_MSC_GDPS_WindU_IsbL-0005_LatLon0.15_PT075H.grib2 2026-04-30 04:17 690K
20260430T00Z_MSC_GDPS_WindU_IsbL-0010_LatLon0.15_PT075H.grib2 2026-04-30 04:17 701K
20260430T00Z_MSC_GDPS_WindU_IsbL-0020_LatLon0.15_PT075H.grib2 2026-04-30 04:17 730K
20260430T00Z_MSC_GDPS_WindU_IsbL-0030_LatLon0.15_PT075H.grib2 2026-04-30 04:17 737K
20260430T00Z_MSC_GDPS_WindU_IsbL-0050_LatLon0.15_PT075H.grib2 2026-04-30 04:17 768K
20260430T00Z_MSC_GDPS_WindU_IsbL-0100_LatLon0.15_PT075H.grib2 2026-04-30 04:17 922K
20260430T00Z_MSC_GDPS_WindU_IsbL-0150_LatLon0.15_PT075H.grib2 2026-04-30 04:17 1.0M
20260430T00Z_MSC_GDPS_WindU_IsbL-0175_LatLon0.15_PT075H.grib2 2026-04-30 04:17 1.0M
20260430T00Z_MSC_GDPS_WindU_IsbL-0200_LatLon0.15_PT075H.grib2 2026-04-30 04:17 838K
20260430T00Z_MSC_GDPS_WindU_IsbL-0225_LatLon0.15_PT075H.grib2 2026-04-30 04:17 849K
20260430T00Z_MSC_GDPS_WindU_IsbL-0250_LatLon0.15_PT075H.grib2 2026-04-30 04:17 853K
20260430T00Z_MSC_GDPS_WindU_IsbL-0275_LatLon0.15_PT075H.grib2 2026-04-30 04:17 881K
20260430T00Z_MSC_GDPS_WindU_IsbL-0300_LatLon0.15_PT075H.grib2 2026-04-30 04:17 872K
20260430T00Z_MSC_GDPS_WindU_IsbL-0350_LatLon0.15_PT075H.grib2 2026-04-30 04:17 886K
20260430T00Z_MSC_GDPS_WindU_IsbL-0400_LatLon0.15_PT075H.grib2 2026-04-30 04:17 1.1M
20260430T00Z_MSC_GDPS_WindU_IsbL-0450_LatLon0.15_PT075H.grib2 2026-04-30 04:17 1.1M
20260430T00Z_MSC_GDPS_WindU_IsbL-0500_LatLon0.15_PT075H.grib2 2026-04-30 04:17 1.1M
20260430T00Z_MSC_GDPS_WindU_IsbL-0550_LatLon0.15_PT075H.grib2 2026-04-30 04:17 1.1M
20260430T00Z_MSC_GDPS_WindU_IsbL-0600_LatLon0.15_PT075H.grib2 2026-04-30 04:17 1.1M
20260430T00Z_MSC_GDPS_WindU_IsbL-0650_LatLon0.15_PT075H.grib2 2026-04-30 04:17 1.2M
20260430T00Z_MSC_GDPS_WindU_IsbL-0700_LatLon0.15_PT075H.grib2 2026-04-30 04:17 1.2M
20260430T00Z_MSC_GDPS_WindU_IsbL-0750_LatLon0.15_PT075H.grib2 2026-04-30 04:17 1.3M
20260430T00Z_MSC_GDPS_WindU_IsbL-0800_LatLon0.15_PT075H.grib2 2026-04-30 04:17 1.3M
20260430T00Z_MSC_GDPS_WindU_IsbL-0850_LatLon0.15_PT075H.grib2 2026-04-30 04:17 1.4M
20260430T00Z_MSC_GDPS_WindU_IsbL-0875_LatLon0.15_PT075H.grib2 2026-04-30 04:17 1.5M
20260430T00Z_MSC_GDPS_WindU_IsbL-0900_LatLon0.15_PT075H.grib2 2026-04-30 04:17 1.5M
20260430T00Z_MSC_GDPS_WindU_IsbL-0925_LatLon0.15_PT075H.grib2 2026-04-30 04:17 1.5M
20260430T00Z_MSC_GDPS_WindU_IsbL-0950_LatLon0.15_PT075H.grib2 2026-04-30 04:17 1.4M
20260430T00Z_MSC_GDPS_WindU_IsbL-0970_LatLon0.15_PT075H.grib2 2026-04-30 04:17 1.4M
20260430T00Z_MSC_GDPS_WindU_IsbL-0985_LatLon0.15_PT075H.grib2 2026-04-30 04:17 1.4M
20260430T00Z_MSC_GDPS_WindU_IsbL-1000_LatLon0.15_PT075H.grib2 2026-04-30 04:17 1.4M
20260430T00Z_MSC_GDPS_WindU_IsbL-1015_LatLon0.15_PT075H.grib2 2026-04-30 04:17 1.3M
20260430T00Z_MSC_GDPS_WindV_AGL-10m_LatLon0.15_PT075H.grib2 2026-04-30 04:17 1.3M
20260430T00Z_MSC_GDPS_WindV_AGL-120m_LatLon0.15_PT075H.grib2 2026-04-30 04:17 971K
20260430T00Z_MSC_GDPS_WindV_AGL-40m_LatLon0.15_PT075H.grib2 2026-04-30 04:17 964K
20260430T00Z_MSC_GDPS_WindV_AGL-80m_LatLon0.15_PT075H.grib2 2026-04-30 04:17 970K
20260430T00Z_MSC_GDPS_WindV_IsbL-0001_LatLon0.15_PT075H.grib2 2026-04-30 04:17 777K
20260430T00Z_MSC_GDPS_WindV_IsbL-0005_LatLon0.15_PT075H.grib2 2026-04-30 04:17 856K
20260430T00Z_MSC_GDPS_WindV_IsbL-0010_LatLon0.15_PT075H.grib2 2026-04-30 04:17 884K
20260430T00Z_MSC_GDPS_WindV_IsbL-0020_LatLon0.15_PT075H.grib2 2026-04-30 04:17 933K
20260430T00Z_MSC_GDPS_WindV_IsbL-0030_LatLon0.15_PT075H.grib2 2026-04-30 04:17 935K
20260430T00Z_MSC_GDPS_WindV_IsbL-0050_LatLon0.15_PT075H.grib2 2026-04-30 04:17 1.0M
20260430T00Z_MSC_GDPS_WindV_IsbL-0100_LatLon0.15_PT075H.grib2 2026-04-30 04:17 1.1M
20260430T00Z_MSC_GDPS_WindV_IsbL-0150_LatLon0.15_PT075H.grib2 2026-04-30 04:17 1.0M
20260430T00Z_MSC_GDPS_WindV_IsbL-0175_LatLon0.15_PT075H.grib2 2026-04-30 04:17 1.0M
20260430T00Z_MSC_GDPS_WindV_IsbL-0200_LatLon0.15_PT075H.grib2 2026-04-30 04:17 839K
20260430T00Z_MSC_GDPS_WindV_IsbL-0225_LatLon0.15_PT075H.grib2 2026-04-30 04:17 846K
20260430T00Z_MSC_GDPS_WindV_IsbL-0250_LatLon0.15_PT075H.grib2 2026-04-30 04:17 845K
20260430T00Z_MSC_GDPS_WindV_IsbL-0275_LatLon0.15_PT075H.grib2 2026-04-30 04:17 930K
20260430T00Z_MSC_GDPS_WindV_IsbL-0300_LatLon0.15_PT075H.grib2 2026-04-30 04:17 921K
20260430T00Z_MSC_GDPS_WindV_IsbL-0350_LatLon0.15_PT075H.grib2 2026-04-30 04:17 930K
20260430T00Z_MSC_GDPS_WindV_IsbL-0400_LatLon0.15_PT075H.grib2 2026-04-30 04:17 875K
20260430T00Z_MSC_GDPS_WindV_IsbL-0450_LatLon0.15_PT075H.grib2 2026-04-30 04:17 879K
20260430T00Z_MSC_GDPS_WindV_IsbL-0500_LatLon0.15_PT075H.grib2 2026-04-30 04:17 885K
20260430T00Z_MSC_GDPS_WindV_IsbL-0550_LatLon0.15_PT075H.grib2 2026-04-30 04:17 1.1M
20260430T00Z_MSC_GDPS_WindV_IsbL-0600_LatLon0.15_PT075H.grib2 2026-04-30 04:17 1.1M
20260430T00Z_MSC_GDPS_WindV_IsbL-0650_LatLon0.15_PT075H.grib2 2026-04-30 04:17 1.2M
20260430T00Z_MSC_GDPS_WindV_IsbL-0700_LatLon0.15_PT075H.grib2 2026-04-30 04:17 1.2M
20260430T00Z_MSC_GDPS_WindV_IsbL-0750_LatLon0.15_PT075H.grib2 2026-04-30 04:17 1.3M
20260430T00Z_MSC_GDPS_WindV_IsbL-0800_LatLon0.15_PT075H.grib2 2026-04-30 04:17 1.3M
20260430T00Z_MSC_GDPS_WindV_IsbL-0850_LatLon0.15_PT075H.grib2 2026-04-30 04:17 1.4M
20260430T00Z_MSC_GDPS_WindV_IsbL-0875_LatLon0.15_PT075H.grib2 2026-04-30 04:17 1.4M
20260430T00Z_MSC_GDPS_WindV_IsbL-0900_LatLon0.15_PT075H.grib2 2026-04-30 04:17 1.5M
20260430T00Z_MSC_GDPS_WindV_IsbL-0925_LatLon0.15_PT075H.grib2 2026-04-30 04:17 1.5M
20260430T00Z_MSC_GDPS_WindV_IsbL-0950_LatLon0.15_PT075H.grib2 2026-04-30 04:17 1.4M
20260430T00Z_MSC_GDPS_WindV_IsbL-0970_LatLon0.15_PT075H.grib2 2026-04-30 04:17 1.4M
20260430T00Z_MSC_GDPS_WindV_IsbL-0985_LatLon0.15_PT075H.grib2 2026-04-30 04:17 1.4M
20260430T00Z_MSC_GDPS_WindV_IsbL-1000_LatLon0.15_PT075H.grib2 2026-04-30 04:17 1.4M
20260430T00Z_MSC_GDPS_WindV_IsbL-1015_LatLon0.15_PT075H.grib2 2026-04-30 04:17 1.3M